Find Iridium 42

NORAD ID: 25077 Int'l Des: 1997-077 Owner: IRID Country: US Constellation: iridium operational
LEOCIRCULARPOLAR

Current View

Loading 3D Globe...

About Iridium 42

Description loading...

Upcoming Passes

Passes for default location (London). Set your location on the main map for personalized predictions.

Altitude History

Loading altitude history...

Two-Line Element Set

1 25077U 97077A 26145.32996007 .00000323 00000-0 10307-3 0 9997
2 25077 86.3942 95.8658 0003054 84.1066 276.0479 14.36671939490314
Epoch: May 25, 2026 • Age: 24 hours

Current Status

Altitude 777.8 km
Velocity 7.47 km/s
Sub-Earth Point 59.99°N, 103.8°E
Launch Date Dec 8, 1997
Age 28.4 years
Type communications

Technical Details

Classification Payload
Mass 662.00 kg
Dry Mass 556.00 kg
Total Mass 662.00 kg
Length 3.50 m
Diameter 1.00 m
Span 5.00 m
Shape Box + 2 Pan
Manufacturer MOTO
Bus Type LM700
Phase Status In Orbit
Owner/State IRID/US

Most Searched